Location: Fort Wayne
(41.1310°N, 85.1290°W)
Time: 12:32:03
(UTC-04:00)

Cosmos 2056 Rocket - Visible Passes

Search period start: 20 September 2017 00:00
Search period end: 30 September 2017 00:00
Orbit: 741 x 802 km, 74.0° (Epoch: 19 September)

Date Brightness Start Highest point End Pass type
(mag) Time Alt. Az. Time Alt. Az. Time Alt. Az.
20 Sep 6.2 23:11:53 10° NNE 23:12:11 11° NNE 23:12:11 11° NNE visible
22 Sep 6.5 00:16:51 10° NNW 00:17:05 11° NNW 00:17:05 11° NNW visible
22 Sep 6.3 23:41:02 10° N 23:41:40 13° N 23:41:40 13° N visible
23 Sep 6.1 23:05:24 10° N 23:06:17 14° N 23:06:17 14° N visible
24 Sep 5.9 22:30:03 10° N 22:30:54 13° NNE 22:30:54 13° NNE visible
25 Sep 6.6 00:11:08 10° NNW 00:11:14 10° NNW 00:11:14 10° NNW visible
25 Sep 6.0 21:55:20 10° NNE 21:55:33 10° NNE 21:55:33 10° NNE visible
25 Sep 6.2 23:35:07 10° NNW 23:35:53 14° NNW 23:35:53 14° NNW visible
26 Sep 5.9 22:59:16 10° N 23:00:33 17° N 23:00:33 17° N visible
27 Sep 5.6 22:23:37 10° N 22:25:15 18° N 22:25:15 18° N visible
28 Sep 5.6 21:48:13 10° N 21:49:58 16° NNE 21:49:58 16° NNE visible
28 Sep 6.2 23:29:25 10° NNW 23:30:18 15° NNW 23:30:18 15° NNW visible
29 Sep 5.7 21:13:23 10° NNE 21:14:42 12° NE 21:14:42 12° NE visible
29 Sep 5.7 22:53:22 10° NNW 22:55:03 21° NNW 22:55:03 21° NNW visible
